Regional Weather Roundup
Issued by NWS Newport/Morehead, NC

Current Version | Previous Version | Text Only | Print | Product List | Glossary On
Versions: 1 2 3 4 5 6 7 8 9 10 11 12 13 14 15 16 17 18 19 20 21 22 23 24 25 26 27 28 29 30 31 32 33 34 35 36 37 38 39 40 41 42 43 44 45 46 47 48 49 50
000
ASUS42 KMHX 011824
RWRMHX
WEATHER ROUNDUP FOR EASTERN NORTH CAROLINA
NATIONAL WEATHER SERVICE NEWPORT/MOREHEAD CITY NC
100 PM EST SUN MAR 01 2015

NOTE: "FAIR" INDICATES FEW OR NO CLOUDS BELOW 12,000 FEET
WITH NO SIGNIFICANT WEATHER AND/OR OBSTRUCTIONS TO VISIBILITY

NCZ015>017-031-032-045>047-102-103-011900-
NORTH COAST

CITY           SKY/WX    TMP DP  RH WIND       PRES   REMARKS
EDENTON        CLOUDY    40  39  95 E3        30.46F
ELIZABETH CITY LGT RAIN  40  38  93 CALM      30.48F FOG
KITTY HAWK     CLOUDY    47  46  97 CALM      30.48F FOG
MANTEO         CLOUDY    50  45  81 SW3       30.49F

$$

NCZ045>047-081-094-103-104-011900-
CENTRAL COAST

CITY           SKY/WX    TMP DP  RH WIND       PRES   REMARKS
FRISCO         CLOUDY    53  46  77 SE13      30.45F
SWANQUARTER      N/A     57 N/A N/A S3G9      30.41F

$$

NCZ095-097-098-100-101-011900-
SOUTHERN COAST

CITY           SKY/WX    TMP DP  RH WIND       PRES   REMARKS
BEAUFORT       CLOUDY    64  55  72 SE12      30.44F
CEDAR ISLAND     N/A     43 N/A N/A NW6       30.47F
JACKSONVILLE   CLOUDY    53  42  66 NW5       30.44F
PINEY ISLAND     N/A    N/A N/A N/A MISG      30.44F
WILMINGTON     CLOUDY    58  49  72 E6        30.43F


$$

NCZ011>013-027>030-043-044-078>080-089-090>093-098-011900-
COASTAL PLAIN

CITY           SKY/WX    TMP DP  RH WIND       PRES   REMARKS
AHOSKIE        MIX PCPN  33  32  96 CALM      30.50S
CLINTON        DRIZZLE   37  37  98 CALM      30.46F
ELIZABETHTOWN  CLOUDY    39  38  96 CALM      30.45F
GOLDSBORO      MIX PCPN  36  36 100 CALM      30.43F
GREENVILLE     LGT RAIN  37  36  93 E3        30.47F
HAVELOCK       CLOUDY    52  41  66 NE10      30.45F
KENANSVILLE    CLOUDY    39  37  94 N3        30.46F FOG
KINSTON        LGT RAIN  37  37 100 E6        30.46F
NEW BERN       CLOUDY    50  43  77 NW5       30.45F
RICHLANDS      CLOUDY    46  39  76 NE5       30.44F
ROCKY MOUNT    LGT RAIN  34  32  92 N6        30.47F FOG
WASHINGTON     LGT RAIN  41  38  90 CALM      30.45F
WHITEVILLE     LGT RAIN  42  38  85 W5        30.46F

$$

AMZ130-135-150-152-154-156-158-170-250-252-270-ANZ085-086-088-633-658-670-011900-
MARINE OBSERVATIONS

STATION/POSITION TIME  TEMP    WIND        PRES    WAVE   SWELL
                       AIR SEA DIR/SP/G            HT/PER HT/PER
                 (UTC) (F)     (DEG/KT/KT) (MB)    (FT/S) (FT/S)
CHESAPEAKE LIGHT 1800   34      20/ 10/ 11 1032.6
64 E VA BEACH    1750   58 62  170/ 21/ 25 1031.4    5/ 5   2/10
DUCK             1700   36 34  350/  6/  6 1032.5
2 E DUCK         1711      34                N/A     3/ 9
10 NE DUCK       1722      36                N/A     4/ 5
OREGON INLET     1800          110/  6/  8 1031.8
HATTERAS CG      1700   53 39  130/ 10/ 14 1032.9
CAPE LOOKOUT     1800   57     140/  9/ 10 1030.4
BEAUFORT LAB     1800   60 41  140/ 11/ 12 1029.5
27 SE WRIGHTSVLE NOT AVBL
5 SE WRIGHTSVLE  NOT AVBL
225 S CAPE HAT   1750   68 72  120/ 19/ 21 1031.3    8/ 7   3/ 9
41 SE CHARLESTON 1750   70 68  140/ 14/ 17 1029.0    8/ 7   7/ 7

$$


USA.gov is the U.S. government's official web portal to all federal, state and local government web resources and services.